Location: Asheville, NC
(35.6000°N, 82.5500°W)
Time: 06:18:03
(UTC-05:00)

Vanguard 3 - Pass Details

Date: 12 February 2018
Orbit: 508 x 3264 km, 33.3° (Epoch: 24 February)

Event Time Altitude Azimuth Distance (km) Brightness Sun altitude
Rises 23:55:19 0° 275° (W) 3,700 - -65.5°
Reaches altitude 10° 23:57:40 10° 267° (W) 3,020 - -65.7°
Maximum altitude 00:04:42 39° 201° (SSW) 2,269 - -66.4°
Drops below altitude 10° 00:16:28 10° 139° (SE) 5,027 - -67.2°
Sets 00:21:42 0° 133° (SE) 6,455 - -67.5°
